Stations météo

Publicité
Rouen, France (7037): Température de l'air & dewpoint: 20.06.2017 07:00:00 - 26.06.2017 07:00:00 (CEST)Rouen, France (7037): Température de l'air 5cm: 20.06.2017 07:00:00 - 26.06.2017 07:00:00 (CEST)Rouen, France (7037): Température de l'air -20cm & Température de l'air -100cm: 20.06.2017 07:00:00 - 26.06.2017 07:00:00 (CEST)Rouen, France (7037): Vitesse du vent & gusts: 20.06.2017 07:00:00 - 26.06.2017 07:00:00 (CEST)Rouen, France (7037): Direction du vent: 20.06.2017 07:00:00 - 26.06.2017 07:00:00 (CEST)Rouen, France (7037): reduced air pressure: 20.06.2017 07:00:00 - 26.06.2017 07:00:00 (CEST)Rouen, France (7037): visibility: 20.06.2017 07:00:00 - 26.06.2017 07:00:00 (CEST)Rouen, France (7037): Ensoleillement: 20.06.2017 07:00:00 - 26.06.2017 07:00:00 (CEST)Rouen, France (7037): Quantités de précipitations: 20.06.2017 07:00:00 - 26.06.2017 07:00:00 (CEST)
Date & Time tt [°C] td [°C] tt 5cm [°C] tt -20cm [°C] tt -100cm [°C] ff [km/h] ff [knt] fx [km/h] fx [knt] dd ppp [hPa] vv [km] sd [min] rr [mm]
26.06.2017 07:00:00 13,7 12,4 6,8 19,6 16,9 5 3 9 5 NW 1015,2 - 30 0,0
26.06.2017 06:00:00 11,5 10,4 6,8 19,7 16,9 6 4 10 5 WNW 1015,2 - 0 0,0
26.06.2017 05:00:00 12,6 10,0 8,3 19,8 16,9 4 2 15 8 NW 1015,0 - 0 0,0
26.06.2017 04:00:00 15,0 11,9 14,2 19,9 16,9 9 5 22 12 W 1015,3 - 0 0,0
26.06.2017 03:00:00 16,0 12,7 15,9 20,0 16,9 12 6 24 13 WNW 1015,2 - 0 0,0
26.06.2017 02:00:00 16,3 13,2 15,8 20,1 16,9 10 5 21 12 WNW 1015,5 - 0 0,0
26.06.2017 01:00:00 16,3 13,6 15,3 20,2 16,9 14 7 28 15 WNW 1015,6 - 0 0,0
26.06.2017 00:00:00 16,8 13,7 13,7 20,2 16,9 17 9 27 15 WNW 1015,8 - 0 0,0
25.06.2017 23:00:00 17,8 13,1 16,8 20,3 16,9 13 7 35 19 W 1015,6 - 0 0,0
25.06.2017 22:00:00 18,9 13,1 18,4 20,3 16,9 18 10 32 17 W 1015,5 - 10 0,0
25.06.2017 21:00:00 20,1 13,8 20,4 20,3 16,9 16 8 32 18 WNW 1015,4 - 16 0,0
25.06.2017 20:00:00 21,3 13,7 23,2 20,2 16,9 22 12 36 19 WNW 1015,3 - 26 0,0
25.06.2017 19:00:00 21,7 14,1 23,3 20,2 16,9 19 10 33 18 WNW 1015,3 - 6 0,0
25.06.2017 18:00:00 24,1 14,2 26,6 20,0 16,9 16 8 36 19 W 1014,8 - 17 0,0
25.06.2017 17:00:00 23,3 13,2 26,0 19,8 16,9 21 12 36 19 W 1014,9 - 1 0,0
25.06.2017 16:00:00 23,0 13,2 26,2 19,7 16,9 15 8 29 16 W 1015,5 - 15 0,0
25.06.2017 15:00:00 21,8 12,4 26,0 19,6 16,9 16 8 30 16 W 1016,1 - 22 0,0
25.06.2017 14:00:00 21,5 12,3 26,0 19,4 16,9 16 9 33 18 W 1016,4 - 20 0,0
25.06.2017 13:00:00 22,0 11,7 27,6 19,3 16,9 20 11 31 17 WNW 1016,5 - 55 0,0
25.06.2017 12:00:00 20,5 9,1 20,7 19,4 16,9 21 12 40 22 WNW 1016,5 - 34 0,0
25.06.2017 11:00:00 18,9 11,0 18,8 19,4 16,9 22 12 41 22 W 1016,3 - 39 0,0
25.06.2017 10:00:00 16,8 10,9 16,6 19,5 16,9 23 12 41 22 W 1016,4 - 12 0,0
25.06.2017 09:00:00 15,6 11,4 14,1 19,6 16,9 19 11 36 20 W 1016,3 - 0 0,0
25.06.2017 08:00:00 14,7 11,7 13,9 19,6 16,9 22 12 37 20 W 1016,0 - 0 0,0
25.06.2017 07:00:00 14,6 13,3 14,2 19,7 16,9 20 11 39 21 WNW 1015,8 - 0 0,2
25.06.2017 06:00:00 15,4 14,4 15,1 19,7 16,9 17 9 35 19 W 1015,6 - 0 0,0
25.06.2017 05:00:00 16,2 14,7 15,7 19,8 16,9 17 9 33 18 W 1015,4 - 0 0,2
25.06.2017 04:00:00 17,1 13,8 16,6 19,9 16,9 18 10 26 14 WSW 1015,5 - 0 0,0
25.06.2017 03:00:00 16,9 14,4 16,2 20,0 16,9 15 8 28 15 WSW 1015,8 - 0 0,0
25.06.2017 02:00:00 17,2 14,1 16,5 20,0 16,9 11 6 24 13 W 1016,3 - 0 0,0
25.06.2017 01:00:00 17,7 13,6 17,5 20,1 16,9 13 7 26 14 W 1016,4 - 0 0,0
25.06.2017 00:00:00 18,2 13,3 17,8 20,1 16,9 15 8 22 12 W 1016,5 - 0 0,0
24.06.2017 23:00:00 18,8 13,0 18,5 20,1 16,9 14 8 22 12 WNW 1016,6 - 0 0,0
24.06.2017 22:00:00 19,7 12,9 19,4 20,2 16,9 11 6 21 12 W 1015,8 - 0 0,0
24.06.2017 21:00:00 20,5 13,2 20,6 20,1 16,9 11 6 22 12 NW 1015,8 - 4 0,0
24.06.2017 20:00:00 21,5 13,7 22,8 20,0 16,9 12 7 24 13 NW 1015,8 - 14 0,0
24.06.2017 19:00:00 22,9 12,8 24,8 19,9 16,9 11 6 24 13 W 1015,8 - 25 0,0
24.06.2017 18:00:00 23,1 13,0 26,0 19,8 16,9 13 7 26 14 WNW 1016,2 - 23 0,0
24.06.2017 17:00:00 23,2 13,1 25,0 19,6 16,8 16 8 30 16 WNW 1016,6 - 11 0,0
24.06.2017 16:00:00 22,7 12,0 25,8 19,4 16,9 13 7 29 16 W 1017,0 - 9 0,0
24.06.2017 15:00:00 22,2 11,3 26,0 19,1 16,9 21 11 33 18 WSW 1017,5 - 26 0,0
24.06.2017 14:00:00 23,4 12,1 28,2 19,0 16,9 17 9 35 19 W 1017,8 - 55 0,0
24.06.2017 13:00:00 21,9 11,3 24,7 18,9 16,9 16 8 34 19 WSW 1018,2 - 47 0,0
24.06.2017 12:00:00 20,2 11,7 21,2 18,9 16,9 20 11 40 22 W 1018,6 - 36 0,0
24.06.2017 11:00:00 18,1 11,6 19,6 18,9 16,9 21 12 38 20 WSW 1019,2 - 3 0,0
24.06.2017 10:00:00 17,4 12,3 18,4 18,9 16,9 16 9 35 19 W 1019,4 - 7 0,0
24.06.2017 09:00:00 16,9 12,0 18,0 19,0 16,8 16 9 24 13 W 1019,4 - 53 0,0
24.06.2017 08:00:00 15,2 10,8 13,4 19,1 16,9 13 7 19 11 SW 1019,4 - 60 0,0
24.06.2017 07:00:00 13,2 10,4 9,5 19,3 16,9 10 6 16 9 SW 1019,6 - 28 0,0
24.06.2017 06:00:00 12,1 10,2 10,8 19,4 16,9 12 7 20 11 SW 1019,8 - 0 0,0
24.06.2017 05:00:00 12,9 10,1 11,2 19,5 16,9 11 6 17 9 W 1019,8 - 0 0,0
24.06.2017 04:00:00 13,4 9,4 9,5 19,7 16,9 11 6 23 12 W 1020,0 - 0 0,0
24.06.2017 03:00:00 11,6 9,0 6,7 19,8 16,9 14 8 23 12 WSW 1020,3 - 0 0,0
24.06.2017 02:00:00 11,6 9,5 5,7 19,9 16,8 13 7 21 11 WSW 1020,6 - 0 0,0
24.06.2017 01:00:00 11,7 8,7 6,8 20,0 16,8 11 6 15 8 SW 1020,8 - 0 0,0
24.06.2017 00:00:00 15,5 10,3 13,7 20,0 16,8 12 6 20 11 SW 1020,8 - 0 0,0
23.06.2017 23:00:00 16,6 11,3 16,3 20,1 16,8 9 5 19 11 WSW 1021,0 - 0 0,0
23.06.2017 22:00:00 17,0 11,3 16,7 20,1 16,8 13 7 22 12 W 1021,0 - 0 0,0
23.06.2017 21:00:00 17,4 11,0 17,8 20,1 16,8 15 8 26 14 W 1020,8 - 0 0,0
23.06.2017 20:00:00 17,9 11,2 18,7 20,1 16,8 10 5 24 13 W 1020,7 - 0 0,0
23.06.2017 19:00:00 18,0 11,3 19,2 20,1 16,8 14 8 24 13 W 1020,7 - 0 0,0
23.06.2017 18:00:00 17,7 11,3 19,6 20,1 16,7 11 6 24 13 W 1020,8 - 0 0,0
23.06.2017 17:00:00 18,0 11,3 20,8 20,1 16,8 13 7 23 13 W 1020,8 - 0 0,0
23.06.2017 16:00:00 17,7 11,0 19,7 20,1 16,8 16 8 29 15 W 1021,1 - 0 0,0
23.06.2017 15:00:00 17,1 10,9 19,9 20,1 16,7 15 8 30 16 W 1021,6 - 0 0,0
23.06.2017 14:00:00 16,9 11,2 18,8 20,1 16,7 15 8 35 19 W 1021,4 - 0 0,0
23.06.2017 13:00:00 17,0 11,3 18,0 20,1 16,7 17 9 31 17 W 1021,2 - 0 0,0
23.06.2017 12:00:00 17,3 11,1 19,2 20,1 16,7 14 8 31 17 WNW 1020,7 - 0 0,0
23.06.2017 11:00:00 16,7 11,2 17,3 20,2 16,7 18 10 31 17 W 1020,3 - 0 0,0
23.06.2017 10:00:00 16,5 11,6 16,8 20,3 16,7 12 6 19 11 W 1019,8 - 0 0,0
23.06.2017 09:00:00 15,8 12,2 16,5 20,4 16,7 14 8 29 15 WSW 1019,4 - 0 0,0
23.06.2017 08:00:00 15,6 12,3 15,4 20,5 16,6 9 5 18 10 W 1018,8 - 0 0,0
23.06.2017 07:00:00 15,0 12,5 14,8 20,6 16,6 10 6 20 11 W 1018,4 - 0 0,0
23.06.2017 06:00:00 14,8 12,5 14,8 20,8 16,7 10 5 17 9 WSW 1018,2 - 0 0,0
23.06.2017 05:00:00 15,0 12,1 14,8 20,9 16,6 8 4 19 10 WSW 1017,8 - 0 0,0
23.06.2017 04:00:00 15,2 11,6 14,1 21,1 16,6 10 6 29 16 W 1017,6 - 0 0,0
23.06.2017 03:00:00 14,5 11,5 12,7 21,2 16,6 8 4 17 9 WNW 1017,7 - 0 0,0
23.06.2017 02:00:00 14,3 11,3 10,6 21,4 16,6 10 6 26 14 W 1017,5 - 0 0,0
23.06.2017 01:00:00 14,5 11,1 10,5 21,6 16,6 10 5 23 12 W 1017,3 - 0 0,0
23.06.2017 00:00:00 15,2 11,0 12,7 21,7 16,6 10 5 23 12 WNW 1017,0 - 0 0,0
22.06.2017 23:00:00 16,2 11,4 14,9 21,8 16,6 11 6 22 12 NW 1016,9 - 0 0,0
22.06.2017 22:00:00 17,5 11,5 17,0 21,9 16,6 12 6 36 19 NW 1016,5 - 2 0,0
22.06.2017 21:00:00 18,7 12,2 19,0 21,9 16,5 21 12 34 18 WNW 1016,0 - 3 0,0
22.06.2017 20:00:00 20,4 13,4 21,5 21,9 16,5 22 12 39 21 NW 1015,4 - 34 0,0
22.06.2017 19:00:00 22,6 14,7 24,9 21,8 16,5 22 12 45 25 WNW 1014,8 - 41 0,0
22.06.2017 18:00:00 22,1 15,0 24,4 21,7 16,5 20 11 42 23 WNW 1014,6 - 17 0,0
22.06.2017 17:00:00 23,5 15,8 28,3 21,6 16,5 19 11 37 20 WNW 1014,1 - 52 0,0
22.06.2017 16:00:00 23,4 16,4 26,1 21,4 16,5 19 11 36 19 WNW 1014,3 4,4 34 0,0
22.06.2017 15:00:00 21,7 15,8 26,5 21,2 16,5 23 12 45 24 WNW 1015,0 4,3 51 0,0
22.06.2017 14:00:00 24,3 16,8 31,3 21,0 16,5 22 12 34 19 WNW 1014,6 4,4 60 0,0
22.06.2017 13:00:00 24,9 17,1 29,9 20,9 16,5 16 9 29 15 WNW 1014,0 4,0 60 0,0
22.06.2017 12:00:00 24,7 16,9 30,9 20,8 16,5 13 7 23 12 WNW 1014,0 7 60 0,0
22.06.2017 11:00:00 23,6 16,4 29,6 20,8 16,5 15 8 24 13 NW 1014,1 7 60 0,0
22.06.2017 10:00:00 24,2 17,0 27,5 20,9 16,4 7 4 14 8 WNW 1013,6 7 60 0,0
22.06.2017 09:00:00 22,9 17,8 23,8 21,0 16,4 9 5 16 9 WNW 1013,5 7 60 0,0
22.06.2017 08:00:00 20,6 17,0 19,5 21,1 16,4 13 7 21 12 NW 1013,7 6 27 0,0
22.06.2017 07:00:00 19,1 17,8 15,7 21,3 16,4 8 4 11 6 WNW 1013,6 7 2 0,0
22.06.2017 06:00:00 18,8 17,6 13,8 21,4 16,4 9 5 13 7 WNW 1013,3 6 0 0,0
22.06.2017 05:00:00 18,4 17,4 13,8 21,5 16,4 4 2 5 3 NW 1013,1 8 0 0,0
22.06.2017 04:00:00 19,0 17,5 14,0 21,7 16,4 3 2 8 4 WNW 1013,2 9 0 0,0
22.06.2017 03:00:00 19,6 15,7 14,4 21,8 16,4 5 3 6 3 NNW 1013,3 18 0 0,0
22.06.2017 02:00:00 20,9 16,1 15,7 21,9 16,4 5 3 10 6 NNW 1013,6 17 0 0,0
22.06.2017 01:00:00 23,6 16,6 17,1 22,0 16,4 8 4 14 7 NW 1013,5 19 0 0,0
22.06.2017 00:00:00 23,1 17,1 18,6 22,1 16,4 4 2 13 7 NW 1013,6 18 0 0,0
21.06.2017 23:00:00 26,1 17,7 21,3 22,1 16,4 9 5 15 8 N 1013,4 19 0 0,0
21.06.2017 22:00:00 27,4 18,1 26,1 22,1 16,3 9 5 19 11 NNW 1013,1 19 0 0,0
21.06.2017 21:00:00 29,7 19,1 30,4 22,1 16,3 10 5 26 14 NNW 1012,6 19 49 0,0
21.06.2017 20:00:00 33,8 16,6 36,8 22,0 16,3 13 7 20 11 WSW 1011,9 19 57 0,0
21.06.2017 19:00:00 35,4 17,6 39,7 21,8 16,3 9 5 25 13 SW 1011,6 19 58 0,0
21.06.2017 18:00:00 35,5 16,8 37,2 21,6 16,3 13 7 25 13 SW 1011,6 18 50 0,0
21.06.2017 17:00:00 34,0 19,3 36,1 21,4 16,3 10 5 23 12 SSE 1012,0 17 22 0,0
21.06.2017 16:00:00 34,4 18,8 38,3 21,1 16,3 11 6 23 12 S 1012,3 17 47 0,0
21.06.2017 15:00:00 34,2 19,1 41,0 20,8 16,3 7 4 24 13 SSE 1012,9 18 58 0,0
21.06.2017 14:00:00 34,0 18,5 39,9 20,6 16,3 11 6 28 15 SE 1013,6 17 60 0,0
21.06.2017 13:00:00 32,8 19,3 38,3 20,4 16,2 14 7 22 12 SE 1013,9 18 60 0,0
21.06.2017 12:00:00 31,4 18,0 35,4 20,4 16,3 11 6 18 10 E 1014,3 20 60 0,0
21.06.2017 11:00:00 29,6 18,1 31,2 20,4 16,3 11 6 21 11 E 1014,4 19 60 0,0
21.06.2017 10:00:00 26,7 16,9 27,1 20,4 16,3 13 7 23 12 ESE 1014,6 19 60 0,0
21.06.2017 09:00:00 24,6 16,6 24,3 20,5 16,2 18 10 24 13 ESE 1014,6 18 60 0,0
21.06.2017 08:00:00 22,6 16,8 20,5 20,6 16,2 14 8 19 11 ESE 1014,7 14 41 0,0
21.06.2017 07:00:00 20,2 15,8 18,6 20,7 16,2 11 6 17 9 E 1014,9 13 0 0,0
21.06.2017 06:00:00 19,5 15,6 16,4 20,8 16,2 8 4 11 6 ESE 1015,0 10 0 0,0
21.06.2017 05:00:00 20,3 15,3 17,2 20,9 16,2 5 3 13 7 ENE 1014,8 14 0 0,0
21.06.2017 04:00:00 20,2 15,6 16,8 21,0 16,2 9 5 12 6 ENE 1015,1 14 0 0,0
21.06.2017 03:00:00 20,7 15,7 19,5 21,1 16,2 11 6 17 9 ENE 1015,4 17 0 0,0
21.06.2017 02:00:00 22,2 15,3 20,2 21,3 16,2 12 6 17 9 ENE 1015,8 20 0 0,0
21.06.2017 01:00:00 21,4 14,3 20,2 21,3 16,2 13 7 16 9 ENE 1015,9 30 0 0,0
21.06.2017 00:00:00 22,9 13,9 21,5 21,4 16,1 12 7 16 9 ENE 1015,8 20 0 0,0
20.06.2017 23:00:00 24,1 14,5 22,7 21,5 16,2 14 7 16 9 ENE 1015,7 33 0 0,0
20.06.2017 22:00:00 24,7 15,6 23,4 21,5 16,1 9 5 14 7 ENE 1015,6 32 0 0,0
20.06.2017 21:00:00 27,8 16,7 29,5 21,5 16,1 9 5 17 9 ENE 1015,1 20 48 0,0
20.06.2017 20:00:00 29,7 16,5 33,9 21,4 16,1 12 7 20 11 ENE 1014,8 20 60 0,0
20.06.2017 19:00:00 31,0 15,4 35,2 21,3 16,1 15 8 20 11 NE 1014,7 18 57 0,0
20.06.2017 18:00:00 31,1 14,3 35,4 21,1 16,1 14 8 22 12 NE 1015,0 19 30 0,0
20.06.2017 17:00:00 32,2 13,9 37,8 20,8 16,1 11 6 20 11 NNE 1015,2 17 53 0,0
20.06.2017 16:00:00 32,8 14,4 38,5 20,6 16,1 11 6 20 11 ENE 1015,3 19 60 0,0
20.06.2017 15:00:00 32,5 14,1 36,8 20,3 16,1 11 6 18 10 NE 1015,6 17 51 0,0
20.06.2017 14:00:00 31,9 14,1 37,9 20,1 16,1 5 3 18 10 E 1015,7 20 58 0,0
20.06.2017 13:00:00 31,0 13,7 38,6 19,9 16,1 6 3 16 9 E 1016,1 19 60 0,0
20.06.2017 12:00:00 30,3 13,6 36,5 19,8 16,1 6 4 14 8 ESE 1016,3 17 60 0,0
20.06.2017 11:00:00 29,3 15,1 32,8 19,8 16,1 7 4 14 7 ESE 1016,4 11 60 0,0
20.06.2017 10:00:00 27,3 16,6 27,3 19,8 16,0 9 5 13 7 ESE 1016,4 18 60 0,0
20.06.2017 09:00:00 24,3 15,8 25,3 19,9 16,1 8 4 13 7 E 1016,4 20 60 0,0
20.06.2017 08:00:00 23,2 15,0 19,2 20,0 16,1 5 3 8 5 ENE 1016,3 18 60 0,0
20.06.2017 07:00:00 19,4 14,0 13,7 20,2 16,1 8 4 13 7 ENE 1016,2 17 49 0,0

tt = Température de l'air
td = dewpoint
tt 5cm = Température de l'air 5cm
tt -20cm = Température de l'air -20cm
tt -100cm = Température de l'air -100cm
ff = Vitesse du vent
fx = gusts
dd = Direction du vent
ppp = reduced air pressure
vv = visibility
sd = Ensoleillement
rr = Quantités de précipitations

stations d'obs. à proximité